Location: Fulham
(51.4744°N, 0.2152°W)
Time: 13:42:03
(UTC+00:00)

Daily predictions for brighter satellites

Satellite Brightness Start Highest point End
(mag) Time Altitude Azimuth Time Altitude Azimuth Time Altitude Azimuth
Cosmos 2227 Rocket 4.5 17:35:57 10° WNW 17:39:44 18° NNW 17:43:32 10° NNE
Cosmos 1953 2.8 17:36:03 10° SSE 17:39:50 38° E 17:43:38 10° NNE
YAOGAN 1 3.1 17:35:51 10° SE 17:39:50 37° ENE 17:43:51 10° N
H-2A R/B 3.2 17:36:21 10° S 17:40:13 71° WSW 17:44:10 10° NNW
Cosmos 1726 3.7 17:39:38 10° SE 17:41:55 16° E 17:44:12 10° NE
Cosmos 1461 4.4 17:38:54 10° NNW 17:42:01 21° NNE 17:45:12 10° ENE
CZ-4C R/B 3.3 17:35:20 10° NW 17:42:20 71° SW 17:50:24 10° SSE
FALCON 9 DEB 3.3 17:39:18 10° W 17:42:46 70° N 17:46:16 10° ENE
Unknown 4.4 17:40:24 10° SSW 17:44:12 36° SE 17:48:01 10° E
COSMOS 2406 3.6 17:38:41 10° NNW 17:44:13 44° NE 17:49:43 10° ESE
Unknown 4.4 17:40:27 10° SSW 17:44:14 36° SE 17:48:04 10° E
Unknown 4.4 17:41:13 10° SSW 17:45:02 36° SE 17:48:51 10° E
Cosmos 2082 Rocket 3.5 17:40:50 10° NNW 17:45:21 23° NE 17:49:49 10° E
Unknown 3.3 17:41:52 10° W 17:45:24 72° N 17:48:55 10° ENE
Cosmos 1758 3.2 17:41:34 10° S 17:45:30 72° E 17:49:29 10° NNE
Cosmos 2297 Rocket 4.5 17:42:20 10° WNW 17:45:51 16° NNW 17:49:22 10° N
Cosmos 1354 Rocket 4.0 17:42:33 10° NNW 17:47:50 77° ENE 17:53:04 10° SSE
Unknown 4.3 17:45:14 10° SW 17:49:04 38° SSE 17:52:56 10° ENE
Unknown 4.3 17:45:21 10° SW 17:49:12 38° SSE 17:53:04 10° ENE
Unknown 4.3 17:47:04 10° SW 17:50:57 40° SSE 17:54:50 10° ENE
Cosmos 332 Rocket 4.2 17:46:43 10° SSW 17:51:32 69° WNW 17:56:26 10° NNE
ASTEX 1 3.7 17:46:57 10° NNE 17:51:41 44° E 17:56:25 10° SSE
Cosmos 1726 Rocket 4.0 17:49:36 10° SSE 17:53:41 39° E 17:57:47 10° NNE
Unknown 4.2 17:50:20 10° SW 17:54:15 42° SSE 17:58:01 11° ENE
Unknown 4.2 17:50:54 10° SW 17:54:48 41° SSE 17:58:32 11° ENE
Unknown 3.3 17:51:42 10° W 17:55:06 66° N 17:58:15 12° E
Unknown 4.2 17:51:55 10° SW 17:55:50 42° SSE 17:59:32 11° ENE
Cosmos 1242 Rocket 3.1 17:53:02 10° N 17:56:29 36° ENE 17:59:56 10° SE
Okean-O 3.4 17:53:39 10° S 17:58:01 58° WSW 18:02:24 10° NNW
FengYun 1-2 T 4.2 17:52:30 10° SSE 17:58:08 76° ENE 18:03:47 10° NNW
CSL-04 Debris 4.2 17:52:52 10° SSE 17:58:14 63° ENE 18:03:39 10° N
Cosmos 968 Rocket 3.7 17:52:57 10° NNW 17:58:16 82° WSW 18:03:32 10° SSE
Unknown 4.2 17:55:07 10° SW 17:59:02 42° SSE 18:02:36 12° E
Cosmos 2239 Rocket 4.4 17:54:17 10° N 18:00:30 75° ENE 18:06:38 10° SSE
Unknown 2.9 17:57:24 10° WNW 18:00:30 72° N 18:03:09 14° E
Unknown 4.1 17:58:28 10° SW 18:02:26 45° SSE 18:05:54 13° E
Cosmos 2058 Rocket 3.7 17:59:43 10° SSE 18:03:37 33° E 18:07:33 10° NNE
Cosmos 1302 Rocket 4.4 17:58:30 10° SSW 18:03:42 69° WNW 18:08:57 10° NNE
Unknown 4.1 18:00:07 10° SW 18:04:05 46° SSE 18:07:29 14° E
Falcon 9 debris 3.3 18:01:26 10° W 18:04:53 66° N 18:07:41 15° E
Cosmos 1939 Rocket 3.5 18:01:35 10° SE 18:05:10 33° ENE 18:08:50 10° N
Unknown 4.0 18:01:47 10° SW 18:05:46 47° SSE 18:09:07 14° E
Ariane Rocket 3.5 18:02:02 10° SE 18:06:44 39° ENE 18:11:28 10° N
Cosmos 1605 Rocket 4.3 18:00:54 10° N 18:06:51 44° ENE 18:12:41 10° SE
Cosmos 1821 Rocket 4.0 18:00:45 10° N 18:06:53 89° ENE 18:13:02 10° S
Cosmos 2228 3.1 18:02:38 10° S 18:06:54 55° E 18:11:11 10° NNE
Unknown 4.0 18:03:25 10° SW 18:07:25 48° SSE 18:10:43 14° E
Lacrosse 5 rocket 2.0 18:04:21 10° WNW 18:07:58 49° SW 18:11:45 10° SE
ATLAS CENTAUR R/B 3.8 18:05:19 10° NW 18:08:35 18° NNW 18:11:46 10° NNE
Unknown 3.4 18:05:02 10° WSW 18:08:46 83° NNW 18:11:49 15° ENE
Unknown 3.3 18:05:31 10° W 18:09:00 66° N 18:11:44 16° ENE
Unknown 4.0 18:06:40 10° SW 18:10:41 50° SSE 18:13:52 15° E
Unknown 3.4 18:06:52 10° WSW 18:10:45 79° SSE 18:13:52 15° ENE
Unknown 3.4 18:07:53 10° WSW 18:11:43 87° SSE 18:14:45 16° ENE
Unknown 3.9 18:08:26 10° SW 18:12:28 52° SSE 18:15:34 16° E
Cosmos 1503 Rocket 4.5 18:08:05 10° NNW 18:13:14 65° WSW 18:18:20 10° S
Cosmos 1844 Rocket 2.7 18:08:16 10° SSW 18:13:50 64° ESE 18:19:26 10° NE
Unknown 3.9 18:10:02 10° SW 18:14:03 52° SSE 18:17:06 17° E
Meteor 1-16 Rocket 4.3 18:10:00 10° S 18:15:23 52° E 18:20:38 10° NNE
Unknown 3.9 18:11:37 10° SW 18:15:39 53° SSE 18:18:38 17° E
Cosmos 1992 Rocket 4.0 18:10:31 10° S 18:15:41 66° ESE 18:20:54 10° NNE
Unknown 3.9 18:12:11 10° SW 18:16:13 54° SSE 18:19:11 17° E
Meteor 2-10 4.3 18:11:37 10° SSE 18:16:20 40° E 18:21:01 10° NNE
Nadezhda 3 Rocket 4.0 18:11:17 10° S 18:17:34 88° E 18:23:57 10° N
Cosmos 921 Rocket 3.4 18:14:07 10° S 18:18:24 44° ESE 18:22:40 10° NNE
Unknown 3.9 18:14:48 10° SW 18:18:50 53° SSE 18:21:40 18° E
COSMO-SKYMED 1 2.5 18:15:07 10° NNE 18:19:30 78° ESE 18:23:50 10° S
Cosmos 1908 4.0 18:17:58 10° SSE 18:21:23 29° E 18:24:48 10° NNE
Cosmos 1328 3.8 18:17:34 10° N 18:21:33 61° ENE 18:25:29 10° SSE
Cosmos 1934 Rocket 4.0 18:15:20 10° N 18:21:40 77° ENE 18:28:02 10° SSE
Cosmos 1535 Rocket 4.4 18:15:33 10° N 18:21:50 78° ENE 18:28:00 10° SSE
Resurs 01 Rocket 3.7 18:21:45 11° NE 18:21:51 11° NE 18:22:47 10° NE
Unknown 3.8 18:18:08 10° SW 18:22:11 55° SSE 18:24:54 20° E
Cosmos 1777 Rocket 4.2 18:17:14 10° NNW 18:22:22 52° ENE 18:27:27 10° SE
YAOGAN 6 2.9 18:19:26 10° S 18:23:06 71° WSW 18:26:46 10° NNW
Unknown 3.8 18:19:44 10° SW 18:23:47 56° SSE 18:26:26 20° E
CZ-4 R/B 1.9 18:19:56 10° S 18:24:04 68° WSW 18:28:18 10° NNW
Cosmos 1470 4.0 18:20:33 10° SSW 18:24:23 46° WNW 18:28:16 10° N
Unknown 3.7 18:21:36 10° SW 18:25:42 60° SSE 18:28:19 21° E
Unknown 3.8 18:23:02 10° SW 18:27:06 58° SSE 18:29:39 22° E
Cosmos 839 Rocket 4.1 18:21:34 10° NW 18:27:46 89° NE 18:34:34 10° SE
Unknown 3.7 18:24:42 10° SW 18:28:47 60° SSE 18:31:16 22° E
Cosmos 2084 3.6 18:24:39 10° SSW 18:29:05 57° SE 18:32:39 15° NE
USA 116 3.1 18:26:58 10° NNE 18:30:03 60° ESE 18:33:14 10° S
Cosmos 2278 Rocket 3.1 18:25:44 10° SSE 18:30:15 25° ESE 18:34:46 10° NE
H-2A R/B 3.2 18:28:31 19° E 18:30:50 25° ENE 18:35:11 10° N
Unknown 3.7 18:28:00 10° SW 18:32:05 62° SSE 18:34:27 24° E
SJ 16-02 3.4 18:30:33 10° NNE 18:32:08 12° NE 18:32:32 12° NE
Cosmos 1953 Rocket 4.1 18:28:01 10° NNW 18:32:23 61° W 18:36:40 10° S
Lacrosse 5 2.2 18:27:50 10° WNW 18:32:50 55° NNE 18:35:56 22° E
Cosmos 1844 3.7 18:27:44 10° SSW 18:33:24 71° ESE 18:39:11 10° NNE
Unknown 3.7 18:29:41 10° SW 18:33:47 63° SSE 18:36:05 25° E
HJ-1C 3.7 18:33:05 19° SE 18:35:10 42° ENE 18:38:24 10° N
Unknown 3.7 18:31:21 10° SW 18:35:27 64° SSE 18:37:41 25° E
Unknown 3.6 18:33:01 10° WSW 18:37:07 65° SSE 18:39:17 26° E
Unknown 3.6 18:36:19 10° WSW 18:40:25 67° SSE 18:42:28 28° E
Unknown 3.6 18:37:57 10° WSW 18:42:05 70° SSE 18:44:05 29° E
Unknown 3.6 18:38:14 10° WSW 18:42:22 73° SSE 18:44:23 29° E
Unknown 3.6 18:39:50 10° WSW 18:43:59 74° SSE 18:45:56 30° E
ATLAS 5 CENTAUR R/B 1.8 18:39:37 10° SW 18:44:00 73° NW 18:48:45 11° NE
Cosmos 292 Rocket 3.9 18:40:12 10° S 18:44:46 49° ESE 18:49:21 10° NNE
Cosmos 2100 Rocket 4.5 18:40:32 10° N 18:46:18 37° ENE 18:49:40 22° ESE
Unknown 3.5 18:43:53 10° W 18:46:24 38° SSW 18:47:05 31° S
Unknown 3.6 18:42:52 10° WSW 18:47:00 72° SSE 18:48:48 32° E
CZ-2C R/B 4.4 18:45:55 23° E 18:47:23 26° ENE 18:52:02 10° N
Cosmos 1606 Rocket 4.4 18:44:50 10° SSW 18:49:07 51° WNW 18:53:24 10° N
Unknown 3.5 18:46:12 10° WSW 18:50:20 74° SSE 18:52:00 35° E
Cosmos 2058 3.9 18:47:59 10° N 18:51:28 28° ENE 18:51:28 28° ENE
Unknown 3.5 18:47:55 10° WSW 18:52:04 75° SSE 18:53:41 36° E
Unknown 3.5 18:49:32 10° WSW 18:53:40 77° SSE 18:55:12 37° E
SWAS 4.3 18:49:24 10° SSW 18:53:40 80° ESE 18:57:40 12° NE
Unknown 3.5 18:51:14 10° WSW 18:55:23 78° SSE 18:56:52 39° E
Cosmos 1153 Rocket 4.4 18:52:39 10° N 18:58:48 66° ENE 19:04:54 10° SSE
SL-4 R/B 4.3 18:56:30 10° W 18:59:01 17° SW 19:01:26 10° S
Unknown 3.5 18:55:04 10° WSW 18:59:10 84° SSE 19:00:29 42° ENE
Cosmos 2263 Rocket 4.3 18:55:26 10° W 19:00:00 24° NW 19:04:35 10° NNE
CZ-2D R/B 3.8 18:56:43 10° S 19:00:30 60° WSW 19:04:22 10° NNW
NOAA 11 4.4 18:55:54 10° S 19:01:21 74° WSW 19:06:49 10° NNW
Unknown 3.5 18:57:50 10° WSW 19:02:00 82° SSE 19:03:13 45° E
Cosmos 1898 Rocket 4.4 18:58:49 10° N 19:03:26 30° NE 19:04:08 29° ENE
Unknown 3.5 18:59:31 10° WSW 19:03:39 83° SSE 19:04:48 47° E
Unknown 3.5 19:01:11 10° WSW 19:05:20 84° SSE 19:06:26 48° ENE
Unknown 3.5 19:02:47 10° WSW 19:06:57 85° SSE 19:07:59 50° ENE
Cosmos 1812 Rocket 3.8 19:07:06 44° E 19:07:12 45° E 19:11:27 10° NNE
Unknown 3.5 19:04:29 10° WSW 19:08:38 86° SSE 19:09:35 52° ENE
Gbstr 26 Del rocket 4.1 19:03:09 10° WNW 19:09:18 80° SSW 19:12:54 32° ESE
Cosmos 489 Rocket 4.3 19:03:41 10° SSW 19:09:53 77° ESE 19:16:06 10° NNE
Unknown 3.5 19:06:35 10° WSW 19:10:38 83° NNW 19:11:30 54° ENE
Cosmos 2016 Rocket 4.5 19:06:12 10° N 19:11:59 38° ENE 19:13:08 35° E
Unknown 3.5 19:07:51 10° WSW 19:12:01 88° SSE 19:12:51 56° ENE
Cosmos 1356 4.0 19:09:10 10° SSW 19:12:33 57° WNW 19:15:58 10° N
Cosmos 1833 Rocket 2.6 19:06:56 10° NNW 19:12:37 84° ENE 19:15:36 29° SSE
Starlink (trailer) 3.5 19:09:30 10° WSW 19:13:39 89° SSE 19:14:26 58° ENE
Unknown 3.5 19:11:10 10° WSW 19:15:19 90° N 19:16:01 61° ENE
Cosmos 1726 3.1 19:13:15 10° SSW 19:16:47 46° WNW 19:20:20 10° N
Unknown 3.5 19:12:46 10° WSW 19:16:57 89° N 19:17:35 63° ENE
ARGOS 3.4 19:15:46 41° ESE 19:17:05 50° ENE 19:22:19 10° N
Cosmos 2061 Rocket 4.3 19:12:41 10° N 19:18:40 44° ENE 19:19:54 39° E
SJ-6B 3.0 19:19:40 53° NE 19:19:40 53° NE 19:22:54 10° N
FALCON 9 DEB 3.2 19:16:32 10° WNW 19:19:51 76° NW 19:19:51 76° NW
Cosmos 1461 2.6 19:17:36 10° NW 19:21:40 84° NE 19:22:03 73° ESE
Unknown 3.3 19:19:16 10° WNW 19:22:33 72° NW 19:22:33 72° NW
Cosmos 2084 Rocket 3.8 19:18:50 10° NW 19:23:10 49° NE 19:23:21 49° NE
Unknown 3.5 19:19:25 10° WSW 19:23:34 85° NNW 19:23:56 73° ENE
Unknown 3.5 19:19:28 10° WSW 19:23:37 86° NNW 19:23:59 73° ENE
Unknown 3.5 19:20:15 10° WSW 19:24:24 85° NNW 19:24:45 74° ENE
Cosmos 1076 Rocket 3.4 19:21:54 10° N 19:26:18 80° E 19:26:54 64° SSE
ADEOS Rocket 3.6 19:19:35 10° NNE 19:27:08 50° E 19:34:16 10° S
Unknown 3.5 19:24:19 10° WSW 19:28:28 83° NNW 19:28:39 80° NE
COSMOS 2406 4.4 19:23:09 10° NW 19:28:33 42° WSW 19:33:54 10° S
Unknown 3.5 19:24:27 10° WSW 19:28:37 83° NNW 19:28:47 80° NE
Cosmos 2082 Rocket 2.1 19:24:34 10° NNW 19:30:21 82° ENE 19:32:05 47° SE
Unknown 3.5 19:26:13 10° W 19:30:23 81° NNW 19:30:29 80° NNE
USA 186 4.5 19:34:12 11° NNW 19:34:12 11° NNW 19:34:19 10° NNW
Unknown 3.8 19:28:40 10° WNW 19:31:22 53° WNW 19:31:22 53° WNW
Unknown 3.6 19:29:33 10° W 19:33:40 80° NNW 19:33:40 80° NNW
Unknown 3.6 19:30:05 10° W 19:34:11 80° NNW 19:34:11 80° NNW
Unknown 3.6 19:31:07 10° W 19:35:11 79° NW 19:35:11 79° NW
Unknown 3.7 19:34:20 10° W 19:38:16 76° WNW 19:38:16 76° WNW
Unknown 3.8 19:37:45 10° W 19:41:33 70° WNW 19:41:33 70° WNW
Falcon 9 debris 4.4 19:38:33 10° WNW 19:40:57 41° W 19:40:57 41° W
Unknown 3.9 19:39:26 10° W 19:43:08 68° WNW 19:43:08 68° WNW
Unknown 3.9 19:41:07 10° W 19:44:46 65° WNW 19:44:46 65° WNW
Ariane Rocket 4.4 19:41:02 10° SSW 19:45:43 37° W 19:50:28 10° NNW
Unknown 4.0 19:42:46 10° W 19:46:22 63° WNW 19:46:22 63° WNW
Unknown 4.3 19:43:15 10° WNW 19:46:02 46° WNW 19:46:02 46° WNW
ATLAS CENTAUR R/B 3.6 19:45:58 10° NNW 19:49:13 18° NNE 19:49:26 18° NNE
Unknown 4.3 19:45:37 10° W 19:48:38 49° WNW 19:48:38 49° WNW
Unknown 4.1 19:46:04 10° W 19:49:31 58° WNW 19:49:31 58° WNW
Unknown 4.4 19:46:25 10° W 19:49:17 46° WNW 19:49:17 46° WNW
SPOT 3 Rocket 3.6 19:49:52 51° S 19:51:12 76° WSW 19:56:26 10° NNW
Unknown 4.2 19:47:51 10° W 19:51:13 56° WNW 19:51:13 56° WNW
Unknown 4.3 19:49:27 10° W 19:52:46 54° WNW 19:52:46 54° WNW
Cosmos 1459 Rocket 3.9 19:47:24 10° N 19:53:37 87° WSW 19:55:52 43° S
USA 238 DEB 4.0 19:48:01 10° SSW 19:53:10 46° SSE 19:53:10 46° SSE
USA 238 4.0 19:48:08 10° SSW 19:53:11 45° SSE 19:53:11 45° SSE
Unknown 4.4 19:51:03 10° W 19:54:17 52° WNW 19:54:17 52° WNW
Unknown 4.4 19:51:38 10° W 19:54:51 51° WNW 19:54:51 51° WNW
Resurs 01 Rocket 2.9 19:59:19 32° N 19:59:19 32° N 20:01:51 10° N
Cosmos 1844 Rocket 4.4 19:53:09 10° WSW 19:58:10 31° NW 20:03:11 10° NNE
Unknown 4.5 19:54:14 10° W 19:57:19 48° W 19:57:19 48° W
In-Cosmos 22 Rocket 4.0 19:54:29 10° NNW 19:59:52 85° W 20:00:09 80° SSW
Cosmos 1727 Rocket 4.4 19:55:59 10° SSW 20:02:05 62° WNW 20:08:14 10° N
Cosmos 1937 Rocket 4.1 19:59:55 10° NNW 20:03:47 45° N 20:03:47 45° N
Cosmos 1802 Rocket 4.0 19:58:46 10° N 20:05:16 86° W 20:06:46 56° S
H-2A R/B 2.4 20:09:09 59° SW 20:09:50 65° WSW 20:15:13 10° NNW
SJ 16-02 3.0 20:07:22 10° NNW 20:09:32 27° N 20:09:32 27° N
Cosmos 2278 Rocket 2.4 20:08:13 10° SW 20:13:51 68° WNW 20:16:57 28° NNE
Cosmos 2173 Rocket 4.3 20:08:09 10° NNW 20:14:22 64° W 20:16:35 40° SSW
Cosmos 990 Rocket 4.4 20:10:21 10° NNW 20:14:28 57° NNW 20:14:28 57° NNW
Lacrosse 5 2.5 20:10:56 10° WNW 20:15:08 53° WSW 20:15:08 53° WSW
Cosmos 1864 Rocket 4.4 20:11:00 10° N 20:16:42 75° NNE 20:16:42 75° NNE
MetOp-A 4.5 20:23:26 62° NNW 20:23:26 62° NNW 20:27:56 10° NNW
CZ-2C R/B 3.4 20:26:59 72° W 20:26:59 72° W 20:32:35 10° NNW
ATLAS 5 CENTAUR R/B 3.6 20:25:31 10° WNW 20:29:29 26° NNW 20:30:17 25° N
Cosmos 1725 Rocket 4.0 20:24:40 10° NNW 20:30:30 77° NW 20:30:30 77° NW
Cosmos 2233 Rocket 4.5 20:31:18 10° N 20:35:58 52° N 20:35:58 52° N
ADEOS Rocket 4.3 21:05:11 10° N 21:12:34 48° WNW 21:19:38 10° SW
Cosmos 2082 Rocket 4.2 21:09:42 10° NW 21:13:45 20° W 21:13:57 20° WSW
Cosmos 2278 Rocket 4.5 21:54:54 10° W 22:03:54 - NNE 21:58:57 20° NW
